Location: Freemans Gardens
(41.6414°N, 83.6077°W)
Time: 03:03:03
(UTC+00:00)

Cosmos 1939 Rocket - Pass Details

Date: 29 October 2020
Orbit: 532 x 584 km, 97.4° (Epoch: 26 November)

Event Time Altitude Azimuth Distance (km) Brightness Sun altitude
Rises 23:16:54 0° 151° (SSE) 2,728 6.2 -8.9°
Reaches altitude 10° 23:19:06 10° 144° (SE) 1,829 5.2 -9.3°
Maximum altitude 23:22:50 42° 73° (ENE) 789 3.2 -10.0°
Drops below altitude 10° 23:26:33 10° 2° (N) 1,816 5.4 -10.7°
Sets 23:28:44 0° 356° (N) 2,706 6.3 -11.1°
